• In Hungary
  • List of Countries
  • For 7 days
  • Water Temperature
  • Satellite Maps
  • Weather Map
  • News
  • Weather Widgets
  • user-avatar
    Login

    Hourly Weather Muhorshibir

    Today, 19 February, Monday

    Time Temperature Precipitation Wind Pressure Humidity
    00:00 -21°C° 0 mm 1 mps 703 mmHg 95%
    01:00 -21°C° 0 mm 1 mps 703 mmHg 95%
    02:00 -21°C° 0 mm 1 mps 703 mmHg 96%
    03:00 -22°C° 0 mm 1 mps 703 mmHg 96%
    04:00 -22°C° 0 mm 1 mps 703 mmHg 96%
    05:00 -22°C° 0 mm 1 mps 703 mmHg 96%
    06:00 -22°C° 0 mm 1 mps 703 mmHg 96%
    07:00 -23°C° 0 mm 1 mps 703 mmHg 96%
    08:00 -24°C° 0 mm 2 mps 703 mmHg 94%
    09:00 -21°C° 0 mm 2 mps 703 mmHg 92%
    10:00 -18°C° 0 mm 2 mps 703 mmHg 89%
    11:00 -17°C° 0 mm 2 mps 703 mmHg 87%
    12:00 -17°C° 0 mm 3 mps 703 mmHg 85%
    13:00 -16°C° 0 mm 3 mps 703 mmHg 82%
    14:00 -15°C° 0 mm 3 mps 702 mmHg 83%
    15:00 -15°C° 0 mm 3 mps 702 mmHg 84%
    16:00 -15°C° 0 mm 3 mps 702 mmHg 86%
    17:00 -16°C° 0 mm 2 mps 702 mmHg 88%
    18:00 -18°C° 0 mm 2 mps 702 mmHg 91%
    19:00 -19°C° 0 mm 2 mps 702 mmHg 94%
    20:00 -20°C° 0 mm 2 mps 702 mmHg 94%
    21:00 -21°C° 0 mm 2 mps 702 mmHg 95%
    22:00 -21°C° 0 mm 2 mps 702 mmHg 96%
    23:00 -23°C° 0 mm 2 mps 702 mmHg 96%

    Tomorrow, 20 February, Tuesday

    Time Temperature Precipitation Wind Pressure Humidity
    00:00 -23°C° 0 mm 2 mps 702 mmHg 96%
    01:00 -23°C° 0 mm 2 mps 702 mmHg 96%
    02:00 -23°C° 0 mm 2 mps 702 mmHg 96%
    03:00 -24°C° 0 mm 2 mps 702 mmHg 96%
    04:00 -24°C° 0 mm 2 mps 702 mmHg 96%
    05:00 -24°C° 0 mm 2 mps 702 mmHg 96%
    06:00 -25°C° 0 mm 2 mps 702 mmHg 96%
    07:00 -25°C° 0 mm 2 mps 702 mmHg 96%
    08:00 -23°C° 0 mm 2 mps 702 mmHg 94%
    09:00 -20°C° 0 mm 2 mps 702 mmHg 91%
    10:00 -17°C° 0 mm 2 mps 702 mmHg 89%
    11:00 -16°C° 0 mm 2 mps 702 mmHg 86%
    12:00 -16°C° 0 mm 3 mps 702 mmHg 84%
    13:00 -14°C° 0 mm 3 mps 701 mmHg 81%
    14:00 -14°C° 0 mm 3 mps 701 mmHg 83%
    15:00 -15°C° 0 mm 3 mps 700 mmHg 84%
    16:00 -15°C° 0 mm 3 mps 700 mmHg 85%
    17:00 -15°C° 0 mm 2 mps 700 mmHg 88%
    18:00 -17°C° 0 mm 2 mps 700 mmHg 90%
    19:00 -18°C° 0 mm 2 mps 700 mmHg 93%
    20:00 -19°C° 0 mm 2 mps 700 mmHg 93%
    21:00 -19°C° 0 mm 2 mps 700 mmHg 93%
    22:00 -19°C° 0 mm 2 mps 700 mmHg 92%
    23:00 -20°C° 0 mm 2 mps 699 mmHg 92%

    Day after tomorrow, 21 February, Wednesday

    Time Temperature Precipitation Wind Pressure Humidity
    00:00 -20°C° 0 mm 2 mps 699 mmHg 92%
    01:00 -20°C° 0 mm 2 mps 699 mmHg 92%
    02:00 -20°C° 0 mm 2 mps 698 mmHg 92%
    03:00 -21°C° 0 mm 2 mps 698 mmHg 93%
    04:00 -21°C° 0 mm 2 mps 697 mmHg 93%
    05:00 -21°C° 0 mm 2 mps 697 mmHg 93%
    06:00 -23°C° 0 mm 2 mps 697 mmHg 93%
    07:00 -23°C° 0 mm 2 mps 697 mmHg 93%
    08:00 -20°C° 0 mm 2 mps 697 mmHg 91%
    09:00 -18°C° 0 mm 2 mps 697 mmHg 89%
    10:00 -16°C° 0 mm 2 mps 697 mmHg 87%
    11:00 -16°C° 0.1 mm 3 mps 697 mmHg 86%
    12:00 -15°C° 0.1 mm 3 mps 696 mmHg 84%
    13:00 -13°C° 0.1 mm 3 mps 696 mmHg 83%
    14:00 -13°C° 0.1 mm 3 mps 696 mmHg 84%
    15:00 -13°C° 0.1 mm 3 mps 696 mmHg 85%
    16:00 -13°C° 0.1 mm 3 mps 695 mmHg 86%
    17:00 -14°C° 0.1 mm 3 mps 695 mmHg 88%
    18:00 -14°C° 0.1 mm 2 mps 695 mmHg 90%
    19:00 -16°C° 0.1 mm 2 mps 696 mmHg 93%
    20:00 -16°C° 0.1 mm 2 mps 695 mmHg 93%
    21:00 -16°C° 0.1 mm 2 mps 695 mmHg 93%
    22:00 -17°C° 0.1 mm 2 mps 695 mmHg 93%
    23:00 -17°C° 0.1 mm 2 mps 695 mmHg 93%

    22 February, Thursday

    Time Temperature Precipitation Wind Pressure Humidity
    00:00 -17°C° 0.1 mm 2 mps 694 mmHg 94%
    01:00 -18°C° 0.1 mm 2 mps 694 mmHg 94%
    02:00 -18°C° 0.1 mm 2 mps 694 mmHg 94%
    03:00 -18°C° 0.1 mm 2 mps 694 mmHg 94%
    04:00 -16°C° 0.1 mm 1 mps 693 mmHg 95%
    05:00 -16°C° 0.1 mm 1 mps 693 mmHg 95%
    06:00 -16°C° 0.1 mm 1 mps 693 mmHg 95%
    07:00 -16°C° 0.1 mm 1 mps 693 mmHg 95%
    08:00 -17°C° 0.1 mm 2 mps 693 mmHg 93%
    09:00 -15°C° 0.1 mm 2 mps 693 mmHg 91%
    10:00 -14°C° 0.1 mm 2 mps 693 mmHg 89%
    11:00 -13°C° 0.1 mm 2 mps 693 mmHg 87%
    12:00 -12°C° 0.1 mm 2 mps 692 mmHg 85%
    13:00 -10°C° 0.1 mm 2 mps 692 mmHg 83%
    14:00 -10°C° 0.1 mm 2 mps 692 mmHg 84%
    15:00 -10°C° 0.1 mm 2 mps 692 mmHg 85%
    16:00 -10°C° 0.1 mm 2 mps 692 mmHg 86%
    17:00 -13°C° 0.1 mm 2 mps 692 mmHg 88%
    18:00 -12°C° 0.1 mm 1 mps 693 mmHg 91%
    19:00 -14°C° 0.1 mm 1 mps 693 mmHg 93%
    20:00 -15°C° 0 mm 1 mps 693 mmHg 93%
    21:00 -15°C° 0 mm 1 mps 693 mmHg 94%
    22:00 -16°C° 0 mm 1 mps 694 mmHg 94%
    23:00 -17°C° 0 mm 0 mps 694 mmHg 95%

    23 February, Friday

    Time Temperature Precipitation Wind Pressure Humidity
    00:00 -17°C° 0 mm 0 mps 694 mmHg 95%
    01:00 -17°C° 0 mm 0 mps 694 mmHg 95%
    02:00 -17°C° 0 mm 1 mps 694 mmHg 95%
    03:00 -17°C° 0 mm 1 mps 694 mmHg 95%
    04:00 -17°C° 0 mm 1 mps 694 mmHg 95%
    05:00 -17°C° 0 mm 1 mps 695 mmHg 94%
    06:00 -17°C° 0 mm 1 mps 695 mmHg 94%
    07:00 -17°C° 0 mm 1 mps 695 mmHg 94%
    08:00 -15°C° 0 mm 1 mps 695 mmHg 91%
    09:00 -13°C° 0 mm 1 mps 695 mmHg 87%
    10:00 -11°C° 0 mm 1 mps 696 mmHg 84%
    11:00 -10°C° 0.1 mm 1 mps 695 mmHg 83%
    12:00 -9°C° 0.1 mm 1 mps 695 mmHg 83%
    13:00 -8°C° 0.1 mm 1 mps 695 mmHg 82%
    14:00 -8°C° 0 mm 1 mps 695 mmHg 84%
    15:00 -8°C° 0 mm 1 mps 695 mmHg 85%
    16:00 -8°C° 0 mm 1 mps 695 mmHg 86%
    17:00 -10°C° 0 mm 1 mps 695 mmHg 89%
    18:00 -12°C° 0 mm 1 mps 696 mmHg 91%
    19:00 -14°C° 0 mm 0 mps 696 mmHg 93%
    20:00 -14°C° 0 mm 0 mps 696 mmHg 93%
    21:00 -13°C° 0 mm 0 mps 696 mmHg 93%
    22:00 -13°C° 0 mm 0 mps 697 mmHg 93%
    23:00 -13°C° 0 mm 0 mps 697 mmHg 94%

    24 February, Saturday

    Time Temperature Precipitation Wind Pressure Humidity
    00:00 -13°C° 0 mm 0 mps 697 mmHg 94%
    01:00 -13°C° 0 mm 0 mps 697 mmHg 95%
    02:00 -13°C° 0.1 mm 0 mps 697 mmHg 95%
    03:00 -13°C° 0.1 mm 0 mps 697 mmHg 95%
    04:00 -13°C° 0.1 mm 0 mps 697 mmHg 95%
    05:00 -14°C° 0 mm 0 mps 697 mmHg 95%
    06:00 -14°C° 0 mm 0 mps 697 mmHg 95%
    07:00 -14°C° 0 mm 0 mps 697 mmHg 95%
    08:00 -12°C° 0 mm 0 mps 697 mmHg 93%
    09:00 -10°C° 0 mm 0 mps 697 mmHg 90%
    10:00 -8°C° 0 mm 0 mps 697 mmHg 88%
    11:00 -7°C° 0 mm 1 mps 696 mmHg 86%
    12:00 -7°C° 0 mm 1 mps 696 mmHg 84%
    13:00 -6°C° 0 mm 1 mps 695 mmHg 83%
    14:00 -6°C° 0 mm 1 mps 695 mmHg 83%
    15:00 -6°C° 0 mm 1 mps 695 mmHg 84%
    16:00 -6°C° 0 mm 1 mps 695 mmHg 84%
    17:00 -8°C° 0 mm 1 mps 695 mmHg 87%
    18:00 -10°C° 0 mm 1 mps 695 mmHg 89%
    19:00 -12°C° 0 mm 0 mps 695 mmHg 92%
    20:00 -12°C° 0 mm 0 mps 695 mmHg 92%
    21:00 -12°C° 0 mm 1 mps 696 mmHg 92%
    22:00 -12°C° 0 mm 1 mps 696 mmHg 92%
    23:00 -13°C° 0 mm 1 mps 696 mmHg 92%
    Show more